Regional Weather Roundup
Issued by NWS State College, PA

Home | Current Version | Previous Version | Text Only | Print | Product List | Glossary On
Versions: 1 2 3 4 5 6 7 8 9 10 11 12 13 14 15 16 17 18 19 20 21 22 23 24 25 26 27 28 29 30 31 32 33 34 35 36 37 38 39 40 41 42 43 44 45 46 47 48 49 50
078
ASUS41 KCTP 252110
RWRCTP

REGIONAL WEATHER ROUNDUP
NATIONAL WEATHER SERVICE STATE COLLEGE PA
500 PM EDT WED MAY 25 2016

Note: "fair" indicates few or no clouds below 12,000 feet with no
significant weather and/or obstructions to visibility.

* = STATION THAT DOES NOT REPORT PRECIPITATION /E.G. RAIN...SNOW...ETC/
    THUNDER OR FOG.

PAZ002>004-007>009-013>016-020>023-029>032-252200-
WESTERN PENNSYLVANIA

CITY           SKY/WX    TMP DP  RH WIND       PRES   REMARKS
ERIE           SUNNY     81  54  39 W8        30.08F
MEADVILLE      SUNNY     79  49  34 SW8       30.11F
FRANKLIN*      SUNNY     81  46  30 SW9       30.14F
NEW CASTLE     FAIR      83  48  29 SW10G16   30.12S
BEAVER COUNTY  SUNNY     81  50  34 SW8G20    30.13S
BUTLER*        SUNNY     81  52  36 S8        30.15S
PITTSBURGH INT MOSUNNY   82  46  28 CALM      30.12F
PITTSBURGH     SUNNY     81  49  32 VRB3      30.13F
INDIANA*       SUNNY     81  54  39 SW9G15    30.16F
LATROBE        SUNNY     81  52  36 SW12      30.14F
WASHINGTON CO* SUNNY     81  52  36 W8        30.14F
$$

PAZ004>006-010>012-017>019-024>028-033>037-041-042-045-046-049>053-252200-
CENTRAL PENNSYLVANIA

CITY           SKY/WX    TMP DP  RH WIND       PRES   REMARKS
BRADFORD       SUNNY     81  41  24 W7        30.13F
DUBOIS         SUNNY     78  49  35 SW9       30.14S
CLEARFIELD     SUNNY     81  45  28 W13       30.13S
JOHNSTOWN      SUNNY     78  42  27 CALM      30.17F
ALTOONA        MOSUNNY   83  46  27 NW9       30.14F
STATE COLLEGE  SUNNY     81  48  32 W12       30.11F
WILLIAMSPORT   SUNNY     89  44  20 W8        30.03F
SELINSGROVE    SUNNY     87  47  24 S6        30.06F
FT INDIANTOWN  MOSUNNY   86  46  25 SW10      30.08F
CAPITAL CITY   SUNNY     84  49  29 SW10      30.08F
HARRISBURG     PTSUNNY   83  49  30 W6        30.08F
YORK           SUNNY     83  50  31 W8        30.11S
$$

PAZ038>040-043-044-047-048-054-055-060>062-067>071-252200-
EASTERN PENNSYLVANIA

CITY           SKY/WX    TMP DP  RH WIND       PRES   REMARKS
SCRANTON       SUNNY     86  47  25 SW9       30.05F
MOUNT POCONO   SUNNY     75  43  31 W13       30.11S
ALLENTOWN      SUNNY     86  49  27 W15       30.05F
QUAKERTOWN*    CLEAR     84  48  28 SW10      30.08F
READING        SUNNY     86  46  24 SW8       30.07S
LANCASTER      SUNNY     83  50  31 W9        30.09S
COATESVILLE    CLEAR     82  50  32 NW9       30.12S
POTTSTOWN      SUNNY     84  46  26 SW10      30.09F
BLUE BELL      SUNNY     82  50  32 W8        30.08S
DOYLESTOWN     SUNNY     84  38  19 SW8       30.07F
WILLOW GROVE   NOT AVBL
NORTH PHILA    SUNNY     87  49  26 W13       30.08F
PHILADELPHIA   PTSUNNY   87  41  19 W16       30.08F
$$




USA.gov is the U.S. government's official web portal to all federal, state and local government web resources and services.